When you browse on this site, cookies collect data to enhance your experience and personalize the content and advertising you see.
Visit our Privacy Policy to learn more. By continuing to use the site, you agree to this use of cookies and data.
  • In Hungary
  • List of Countries
  • For 7 days
  • Water Temperature
  • Weather Map
  • News
  • Weather Widgets
  • user-avatar
    Login

    Hourly Weather Berechka

    Today, 15 October, Tuesday

    Time Temperature Precipitation Wind Pressure Humidity
    00:00 +14°C° 0 mm 6 mps 740 mmHg 68%
    01:00 +13°C° 0 mm 6 mps 740 mmHg 68%
    02:00 +13°C° 0 mm 6 mps 740 mmHg 69%
    03:00 +12°C° 0 mm 5 mps 740 mmHg 72%
    04:00 +12°C° 0 mm 5 mps 740 mmHg 76%
    05:00 +11°C° 0 mm 4 mps 740 mmHg 79%
    06:00 +12°C° 0 mm 4 mps 741 mmHg 81%
    07:00 +12°C° 0 mm 4 mps 741 mmHg 84%
    08:00 +13°C° 0 mm 4 mps 742 mmHg 86%
    09:00 +13°C° 0 mm 4 mps 742 mmHg 81%
    10:00 +14°C° 0 mm 4 mps 742 mmHg 75%
    11:00 +15°C° 0 mm 4 mps 742 mmHg 70%
    12:00 +15°C° 0 mm 4 mps 743 mmHg 69%
    13:00 +15°C° 0 mm 4 mps 743 mmHg 67%
    14:00 +16°C° 0 mm 3 mps 743 mmHg 66%
    15:00 +14°C° 0 mm 3 mps 743 mmHg 69%
    16:00 +14°C° 0 mm 3 mps 744 mmHg 72%
    17:00 +13°C° 0 mm 3 mps 744 mmHg 75%
    18:00 +13°C° 0 mm 2 mps 744 mmHg 74%
    19:00 +13°C° 0 mm 2 mps 745 mmHg 73%
    20:00 +13°C° 0 mm 2 mps 745 mmHg 72%
    21:00 +12°C° 0 mm 2 mps 746 mmHg 75%
    22:00 +10°C° 0 mm 3 mps 746 mmHg 77%
    23:00 +10°C° 0 mm 3 mps 746 mmHg 79%

    Tomorrow, 16 October, Wednesday

    Time Temperature Precipitation Wind Pressure Humidity
    00:00 +9°C° 0 mm 3 mps 747 mmHg 80%
    01:00 +8°C° 0 mm 3 mps 747 mmHg 81%
    02:00 +7°C° 0 mm 3 mps 747 mmHg 82%
    03:00 +7°C° 0 mm 3 mps 747 mmHg 83%
    04:00 +7°C° 0 mm 3 mps 747 mmHg 85%
    05:00 +5°C° 0 mm 3 mps 747 mmHg 86%
    06:00 +7°C° 0 mm 3 mps 748 mmHg 85%
    07:00 +6°C° 0 mm 4 mps 748 mmHg 83%
    08:00 +7°C° 0 mm 4 mps 748 mmHg 81%
    09:00 +8°C° 0 mm 4 mps 748 mmHg 78%
    10:00 +10°C° 0 mm 4 mps 748 mmHg 74%
    11:00 +11°C° 0 mm 4 mps 748 mmHg 70%
    12:00 +12°C° 0 mm 4 mps 748 mmHg 68%
    13:00 +12°C° 0 mm 4 mps 747 mmHg 66%
    14:00 +12°C° 0 mm 4 mps 747 mmHg 65%
    15:00 +12°C° 0 mm 4 mps 747 mmHg 68%
    16:00 +11°C° 0 mm 4 mps 747 mmHg 71%
    17:00 +10°C° 0 mm 3 mps 746 mmHg 74%
    18:00 +10°C° 0 mm 4 mps 746 mmHg 75%
    19:00 +8°C° 0 mm 4 mps 746 mmHg 76%
    20:00 +8°C° 0 mm 4 mps 746 mmHg 77%
    21:00 +8°C° 0 mm 4 mps 746 mmHg 77%
    22:00 +7°C° 0 mm 4 mps 746 mmHg 77%
    23:00 +7°C° 0 mm 4 mps 746 mmHg 77%

    Day after tomorrow, 17 October, Thursday

    Time Temperature Precipitation Wind Pressure Humidity
    00:00 +7°C° 0 mm 4 mps 745 mmHg 79%
    01:00 +7°C° 0 mm 4 mps 745 mmHg 80%
    02:00 +6°C° 0 mm 4 mps 745 mmHg 82%
    03:00 +6°C° 0 mm 4 mps 745 mmHg 84%
    04:00 +6°C° 0 mm 4 mps 744 mmHg 86%
    05:00 +6°C° 0 mm 4 mps 744 mmHg 88%
    06:00 +7°C° 0 mm 4 mps 744 mmHg 87%
    07:00 +8°C° 0 mm 4 mps 744 mmHg 86%
    08:00 +9°C° 0 mm 5 mps 743 mmHg 84%
    09:00 +12°C° 0 mm 5 mps 743 mmHg 80%
    10:00 +13°C° 0 mm 4 mps 743 mmHg 76%
    11:00 +15°C° 0 mm 4 mps 743 mmHg 73%
    12:00 +15°C° 0 mm 4 mps 743 mmHg 71%
    13:00 +17°C° 0 mm 4 mps 743 mmHg 68%
    14:00 +18°C° 0 mm 4 mps 742 mmHg 66%
    15:00 +17°C° 0 mm 4 mps 742 mmHg 72%
    16:00 +14°C° 0 mm 3 mps 742 mmHg 78%
    17:00 +13°C° 0 mm 3 mps 741 mmHg 83%
    18:00 +13°C° 0 mm 3 mps 741 mmHg 84%
    19:00 +12°C° 0 mm 3 mps 742 mmHg 86%
    20:00 +12°C° 0 mm 3 mps 742 mmHg 87%
    21:00 +11°C° 0 mm 3 mps 741 mmHg 87%
    22:00 +11°C° 0 mm 3 mps 741 mmHg 87%
    23:00 +11°C° 0 mm 3 mps 741 mmHg 87%

    18 October, Friday

    Time Temperature Precipitation Wind Pressure Humidity
    00:00 +10°C° 0 mm 3 mps 741 mmHg 87%
    01:00 +10°C° 0 mm 3 mps 741 mmHg 86%
    02:00 +10°C° 0 mm 3 mps 741 mmHg 85%
    03:00 +10°C° 0 mm 3 mps 741 mmHg 87%
    04:00 +9°C° 0 mm 3 mps 741 mmHg 89%
    05:00 +9°C° 0 mm 3 mps 741 mmHg 91%
    06:00 +10°C° 0 mm 3 mps 741 mmHg 88%
    07:00 +10°C° 0 mm 3 mps 741 mmHg 86%
    08:00 +11°C° 0 mm 3 mps 741 mmHg 83%
    09:00 +12°C° 0 mm 3 mps 742 mmHg 78%
    10:00 +13°C° 0 mm 3 mps 742 mmHg 73%
    11:00 +14°C° 0 mm 3 mps 742 mmHg 68%
    12:00 +14°C° 0 mm 3 mps 742 mmHg 67%
    13:00 +16°C° 0 mm 3 mps 742 mmHg 66%
    14:00 +16°C° 0 mm 3 mps 743 mmHg 65%
    15:00 +15°C° 0 mm 2 mps 743 mmHg 69%
    16:00 +14°C° 0 mm 2 mps 743 mmHg 73%
    17:00 +13°C° 0 mm 2 mps 743 mmHg 78%
    18:00 +12°C° 0 mm 2 mps 743 mmHg 80%
    19:00 +12°C° 0 mm 2 mps 744 mmHg 83%
    20:00 +10°C° 0 mm 2 mps 744 mmHg 85%
    21:00 +10°C° 0 mm 2 mps 744 mmHg 87%
    22:00 +10°C° 0 mm 2 mps 744 mmHg 90%
    23:00 +9°C° 0 mm 2 mps 744 mmHg 92%

    19 October, Saturday

    Time Temperature Precipitation Wind Pressure Humidity
    00:00 +9°C° 0 mm 2 mps 744 mmHg 93%
    01:00 +9°C° 0 mm 2 mps 744 mmHg 93%
    02:00 +9°C° 0 mm 2 mps 745 mmHg 93%
    03:00 +10°C° 0 mm 1 mps 745 mmHg 93%
    04:00 +10°C° 0 mm 1 mps 745 mmHg 93%
    05:00 +10°C° 0 mm 1 mps 745 mmHg 92%
    06:00 +10°C° 0 mm 1 mps 746 mmHg 92%
    07:00 +10°C° 0 mm 1 mps 746 mmHg 91%
    08:00 +10°C° 0 mm 1 mps 746 mmHg 91%
    09:00 +11°C° 0 mm 1 mps 746 mmHg 88%
    10:00 +11°C° 0 mm 1 mps 747 mmHg 85%
    11:00 +12°C° 0 mm 1 mps 747 mmHg 82%
    12:00 +11°C° 0 mm 0 mps 747 mmHg 79%
    13:00 +12°C° 0 mm 0 mps 747 mmHg 76%
    14:00 +12°C° 0 mm 0 mps 747 mmHg 73%
    15:00 +11°C° 0 mm 0 mps 747 mmHg 77%
    16:00 +12°C° 0 mm 1 mps 747 mmHg 80%
    17:00 +11°C° 0 mm 1 mps 747 mmHg 84%
    18:00 +10°C° 0 mm 1 mps 747 mmHg 86%
    19:00 +10°C° 0 mm 1 mps 748 mmHg 88%
    20:00 +9°C° 0 mm 1 mps 748 mmHg 90%
    21:00 +9°C° 0 mm 1 mps 748 mmHg 91%
    22:00 +9°C° 0 mm 1 mps 748 mmHg 91%
    23:00 +9°C° 0 mm 1 mps 748 mmHg 92%

    20 October, Sunday

    Time Temperature Precipitation Wind Pressure Humidity
    00:00 +8°C° 0 mm 1 mps 748 mmHg 92%
    01:00 +8°C° 0 mm 1 mps 748 mmHg 92%
    02:00 +7°C° 0 mm 0 mps 748 mmHg 92%
    03:00 +7°C° 0 mm 0 mps 748 mmHg 92%
    04:00 +7°C° 0 mm 0 mps 748 mmHg 92%
    05:00 +6°C° 0 mm 0 mps 748 mmHg 92%
    06:00 +8°C° 0 mm 1 mps 749 mmHg 90%
    07:00 +9°C° 0 mm 1 mps 749 mmHg 88%
    08:00 +9°C° 0 mm 1 mps 749 mmHg 86%
    09:00 +10°C° 0 mm 1 mps 749 mmHg 81%
    10:00 +12°C° 0 mm 1 mps 749 mmHg 75%
    11:00 +13°C° 0 mm 2 mps 749 mmHg 70%
    12:00 +13°C° 0 mm 2 mps 749 mmHg 69%
    13:00 +13°C° 0 mm 2 mps 749 mmHg 68%
    14:00 +14°C° 0 mm 1 mps 749 mmHg 66%
    15:00 +13°C° 0 mm 1 mps 749 mmHg 70%
    16:00 +12°C° 0 mm 1 mps 749 mmHg 74%
    17:00 +11°C° 0 mm 1 mps 749 mmHg 78%
    18:00 +10°C° 0 mm 2 mps 749 mmHg 80%
    19:00 +9°C° 0 mm 2 mps 749 mmHg 82%
    20:00 +9°C° 0 mm 2 mps 749 mmHg 84%
    21:00 +8°C° 0 mm 2 mps 749 mmHg 85%
    22:00 +8°C° 0 mm 2 mps 749 mmHg 87%
    23:00 +7°C° 0 mm 2 mps 749 mmHg 89%
    Show more